Cloud_Cover
34 35 18 0 0 0 0 0 0 0 0 0 0 0 0 0 0 0 0 0 0 0 0 0 0 0 0 14 23 23 22 26
1 2 0 0 0 0 0 0 0 0 0 0 0 0 0 0 0 0 0 0 0 0 0 0 0 0 0 0 0 9 9 50
9 5 4 3 0 0 0 0 0 0 0 0 0 0 0 0 0 0 0 0 0 0 0 0 0 0 0 0 0 0 0 0
6 5 5 0 0 0 0 0 0 0 0 0 0 0 0 0 0 0 0 0 0 0 0 0 0 0 0 0 0 0 0 0
7 54 16 6 5 0 0 0 0 0 0 0 0 0 0 0 0 0 0 0 0 4 5 2 0 3 3 0 0 0 0 0
65 76 49 17 5 1 0 0 0 0 10 8 0 0 1 3 0 0 4 5 5 1 2 5 5 0 0 5 5 1 0 3
100 100 82 96 33 1 0 0 0 89 100 87 9 6 5 5 7 10 5 4 15 5 6 5 1 0 0 0 0 5 83 5
100 100 100 35 5 0 0 0 0 2 6 28 21 12 5 5 5 5 2 37 7 69 25 18 4 3 2 0 0 38 43 3
100 100 64 6 5 0 0 0 5 0 0 21 95 1 0 4 2 5 5 5 6 5 5 6 5 1 0 0 2 71 4 0
100 6 5 16 5 2 50 39 5 0 4 56 2 0 0 0 0 0 0 3 9 4 0 0 0 0 0 5 56 72 3 0
100 97 78 35 38 59 6 6 5 5 43 3 0 0 0 0 0 2 1 2 0 2 5 5 5 0 2 5 76 16 4 0
67 76 100 99 59 8 24 5 5 74 81 5 0 0 0 0 4 5 0 0 4 5 0 1 5 4 36 100 100 24 5 3
100 100 100 15 5 37 85 8 5 5 5 3 0 0 4 0 5 4 5 5 5 4 2 5 5 20 100 100 5 5 1 0
100 100 100 31 68 67 6 5 5 5 0 0 0 5 5 5 5 5 5 0 0 0 0 5 55 100 82 57 9 5 5 0
100 86 41 24 39 65 55 71 5 4 5 5 5 5 5 5 26 30 5 0 4 3 7 100 100 95 98 27 43 54 33 3
96 82 7 7 100 100 100 34 37 12 5 37 69 10 85 27 34 72 5 5 5 26 100 100 100 93 42 5 10 49 37 62
93 48 44 87 100 100 100 100 100 43 99 96 100 100 100 100 73 43 6 5 46 100 100 90 100 17 5 5 5 5 5 46
79 98 100 100 100 100 100 96 92 99 100 100 100 100 100 100 81 5 5 88 100 100 96 50 6 5 5 5 5 32 53 74
84 100 100 100 100 100 100 100 100 100 100 100 100 99 80 81 6 85 100 100 100 98 9 7 5 5 5 5 5 5 5 6
100 100 100 100 100 100 100 100 100 100 100 100 100 82 100 92 100 100 100 100 92 90 44 5 5 5 5 5 5 5 5 5